Flag for Switzerland

Past Weather in Zürich, Zurich, Switzerland — Yesterday and Last 2 Weeks

Now
54 °F

Cool.


Feels Like: 53 °F
Forecast: 64 / 46 °F
Wind: 5 mph from West

Location: Zuerich-Fluntern
Current Time: Sep 29, 2020 at 5:24:31 pm
Latest Report: Sep 29, 2020 at 4:00 pm
Visibility: N/A
Pressure30.13 "Hg
Humidity: 79%
Dew Point: 47 °F
Location of ZürichLocation

Past Weather in Zürich — Graph

°F

Zürich Temperature Yesterday

Maximum temperature yesterday: 59 °F (at 4:00 pm)
Minimum temperature yesterday: 44 °F (at 7:00 am)
Average temperature yesterday: 50 °F

High & Low Weather Summary for the Past Weeks

 TemperatureHumidityPressure
High82 °F (Sep 14, 5:00 pm)98% (Sep 20, 7:00 am)30.22 "Hg (Sep 20, 7:00 am)
Low42 °F (Sep 26, 7:00 pm)42% (Sep 16, 4:00 pm)29.60 "Hg (Sep 25, 4:00 am)
Average60 °F79%29.93 "Hg
* Reported Sep 14 4:00 pm — Sep 29 4:00 pm, Zürich. Weather by CustomWeather, © 2020

Note: Actual official high and low records may vary slightly from our data, if they occured in-between our weather recording intervals... More about our weather records

Zürich Weather History for the Previous 24 Hours

Scroll right to see more
 ConditionsComfort  
Time TempWeatherWind HumidityBarometerVisibility
4:00 pm
Tue, Sep 29
54 °FCool.5 mph79%30.13 "HgN/A
3:00 pm53 °FCool.3 mph81%30.13 "HgN/A
2:00 pm52 °FOvercast.7 mph83%30.14 "HgN/A
1:00 pm52 °FCool.5 mph89%30.14 "HgN/A
12:00 pm51 °FCool.3 mph93%30.14 "HgN/A
11:00 am50 °FCool.6 mph93%30.14 "HgN/A
10:00 am49 °FCool.6 mph94%30.14 "HgN/A
9:00 am48 °FCool.9 mph94%30.12 "HgN/A
8:00 am49 °FCool.10 mph94%30.10 "HgN/A
7:00 am50 °FCool.10 mph92%30.07 "HgN/A
6:00 am50 °FCool.9 mph92%30.06 "HgN/A
5:00 am50 °FCool.9 mph93%30.04 "HgN/A
4:00 am50 °FCool.12 mph92%30.03 "HgN/A
2:00 am50 °FCool.9 mph89%30.02 "HgN/A
1:00 am50 °FCool.6 mph89%30.02 "HgN/A
12:00 am50 °FCool.6 mph85%30.02 "HgN/A
11:00 pm
Mon, Sep 28
50 °FCool.6 mph92%30.02 "HgN/A
10:00 pm50 °FCool.7 mph89%30.01 "HgN/A
9:00 pm53 °FCool.6 mph72%29.98 "HgN/A
8:00 pm53 °FCool.8 mph68%29.96 "HgN/A
7:00 pm54 °FCool.8 mph62%29.93 "HgN/A
6:00 pm54 °FCool.6 mph64%29.90 "HgN/A
5:00 pm57 °FRefreshingly cool.10 mph57%29.88 "HgN/A
Weather by CustomWeather, © 2020

See weather overview